This demonstration page uses our WeatherBlox Daily Observations layout. Learn more.

Left ArrowRight Arrow

Hourly Observations for October 4, 2021

Temp ( °F °C ) Dew Point ( °F °C ) Humidity (%) Winds ( mph kmh ) Pressure ( in mb ) Visibility ( mi km ) Precip ( " mm )
12:56 am 00:56 Clear 53 11.7 44 6.7 72 72 N N/A 30.05 1018 10 16 N/A
1:56 am 01:56 Clear 49 9.4 44 6.7 83 83 N N/A 30.06 1018 10 16 N/A
2:56 am 02:56 Clear 51 10.6 45 7.2 80 80 N N/A 30.05 1018 10 16 N/A
3:56 am 03:56 Clear 50 10 44 6.7 80 80 N N/A 30.06 1018 10 16 N/A
4:56 am 04:56 Clear 50 10 44 6.7 80 80 N N/A 30.05 1018 10 16 N/A
5:56 am 05:56 Clear 48 8.9 43 6.1 83 83 WNW 5 7 30.06 1018 10 16 N/A
6:56 am 06:56 Clear 47 8.3 42 5.6 83 83 NNE 6 9 30.07 1018 10 16 N/A
7:56 am 07:56 Sunny 46 7.8 42 5.6 86 86 NNW 5 7 30.10 1019 10 16 N/A
8:56 am 08:56 Sunny 51 10.6 45 7.2 80 80 NNW 3 6 30.12 1020 10 16 N/A
9:56 am 09:56 Sunny 58 14.4 48 8.9 70 70 N N/A 30.13 1020 10 16 N/A
10:56 am 10:56 Sunny 69 20.6 50 10 51 51 VRB 3 6 30.13 1020 10 16 N/A
11:56 am 11:56 Sunny 76 24.4 44 6.7 32 32 NNE 6 9 30.11 1020 10 16 N/A
12:56 pm 12:56 Sunny 79 26.1 42 5.6 27 27 NNE 5 7 30.11 1020 10 16 N/A
1:56 pm 13:56 Sunny 81 27.2 44 6.7 27 27 NE 10 17 30.10 1019 10 16 N/A
2:56 pm 14:56 Sunny 81 27.2 40 4.4 23 23 E 9 15 30.08 1019 10 16 N/A
3:56 pm 15:56 Sunny 82 27.8 39 3.9 22 22 NE 14 22 30.08 1019 10 16 N/A
4:56 pm 16:56 Sunny 81 27.2 40 4.4 23 23 NE 13 20 30.08 1019 10 16 N/A
5:56 pm 17:56 Sunny 79 26.1 43 6.1 28 28 ENE 12 19 30.09 1019 10 16 N/A
6:56 pm 18:56 Sunny 73 22.8 44 6.7 35 35 NE 7 11 30.11 1020 10 16 N/A
7:56 pm 19:56 Clear 65 18.3 45 7.2 49 49 NE 6 9 30.13 1020 10 16 N/A
8:56 pm 20:56 Clear 64 17.8 43 6.1 46 46 NE 5 7 30.14 1021 10 16 N/A
9:56 pm 21:56 Clear 60 15.6 43 6.1 53 53 ENE 6 9 30.15 1021 10 16 N/A
10:56 pm 22:56 Clear 58 14.4 44 6.7 60 60 N N/A 30.16 1021 10 16 N/A
11:56 pm 23:56 Clear 57 13.9 43 6.1 60 60 ENE 3 6 30.15 1021 10 16 N/A

Powered by AerisWeather